Location: Key Biscayne
(25.6930°N, 80.1630°W)
Time: 13:24:06
(UTC-04:00)

Vanguard 3 - Visible Passes

Search period start: 20 June 2018 00:00
Search period end: 30 June 2018 00:00
Orbit: 508 x 3264 km, 33.3° (Epoch: 19 June)

Date Brightness Start Highest point End Pass type
(mag) Time Alt. Az. Time Alt. Az. Time Alt. Az.
20 Jun 9.3 02:42:34 19° E 02:42:34 19° E 02:44:34 10° ENE visible
20 Jun 8.2 04:47:09 23° W 04:50:48 58° N 05:00:23 10° ENE visible
21 Jun 7.5 03:37:24 66° NE 03:37:24 66° NE 03:44:02 10° ENE visible
21 Jun 8.9 05:43:32 10° WNW 05:49:49 51° N 06:01:03 10° ENE visible
22 Jun 9.6 02:27:39 14° ENE 02:27:39 14° ENE 02:28:31 10° ENE visible
22 Jun 8.2 04:32:14 25° WNW 04:35:14 50° N 04:43:46 10° ENE visible
23 Jun 8.0 03:22:29 47° NE 03:22:29 47° NE 03:27:41 10° ENE visible
23 Jun 8.8 05:28:20 10° WNW 05:34:08 48° N 05:44:21 10° ENE visible
24 Jun 8.2 04:17:20 28° WNW 04:19:42 44° N 04:27:17 10° ENE visible
25 Jun 8.5 03:07:38 33° NE 03:07:38 33° NE 03:11:27 10° ENE visible
25 Jun 8.7 05:13:06 10° WNW 05:18:30 46° N 05:27:46 10° E visible
26 Jun 8.2 04:02:31 30° NW 04:04:14 39° N 04:10:56 10° ENE visible
27 Jun 9.0 02:52:51 23° NE 02:52:51 23° NE 02:55:19 10° ENE visible
27 Jun 8.6 04:57:53 10° WNW 05:02:53 45° NNE 05:11:18 10° E visible
28 Jun 8.1 03:47:49 32° NNW 03:48:46 35° N 03:54:41 10° ENE visible
28 Jun 8.4 05:55:34 10° WNW 06:01:27 66° NNE 06:12:06 10° ESE visible
29 Jun 9.4 02:38:13 15° NE 02:38:13 15° NE 02:39:18 10° ENE visible
29 Jun 8.4 04:42:48 11° WNW 04:47:18 45° NNE 04:54:57 10° E visible
